Regional Weather Roundup
Issued by NWS

Home | Current Version | Previous Version | Graphics & Text | Print | Product List | Glossary On
Versions: 1 2 3 4 5 6 7 8 9 10 11 12 13 14 15 16 17 18 19 20 21 22 23 24 25 26 27 28
000
ASUS45 KBOU 272107
RWRCO

WEATHER ROUNDUP FOR COLORADO
NATIONAL WEATHER SERVICE DENVER/BOULDER CO
300 PM MDT SAT AUG 27 2016

NOTE: "FAIR" INDICATES FEW OR NO CLOUDS BELOW 12000 FEET WITH NO
SIGNIFICANT WEATHER AND/OR OBSTRUCTIONS TO VISIBILITY.

COZ001>005-013-030-031-272200-
...NORTHWEST COLORADO...

CITY           SKY/WX    TMP DP  RH WIND       PRES   REMARKS
CRAIG          FAIR      77  29  17 NW9       30.16F
HAYDEN         FAIR      73  28  19 W10G16    30.17F
MEEKER         FAIR      75  34  22 CALM      30.16F
MOUNT WERNER   NOT AVBL
STEAMBOAT SPGS FAIR      74  32  22 SW9G20    30.20F
WALDEN         FAIR      70  23  17 SW10      30.28F
$$

COZ006>008-011-272200-
...WEST CENTRAL VALLEYS...

CITY           SKY/WX    TMP DP  RH WIND       PRES   REMARKS
GRAND JUNCTION CLOUDY    76  44  32 SW7       30.11F
MONTROSE       LGT RAIN  66  47  50 SE26      30.19S
EAGLE          PTSUNNY   70  37  30 SW15      30.22F
RIFLE          FAIR      75  46  35 NE6       30.14F
DELTA          NOT AVBL
NUCLA          TSTM     N/A N/A N/A CALM      30.25R
$$

COZ017>023-064>068-272200-
...SOUTHWEST COLORADO...

CITY           SKY/WX    TMP DP  RH WIND       PRES   REMARKS
DURANGO        FAIR      73  40  30 W14       30.20F
CORTEZ         PTSUNNY   71  49  45 W15G22    30.19S
PAGOSA SPRINGS FAIR      71  32  23 S10       30.27F
TELLURIDE      CLOUDY    49  45  86 E9G18     30.42S
WOLF CREEK PAS PTSUNNY   46  36  66 SW12G23   30.56S
$$

COZ009-010-012-014-032>034-037-058>063-272200-
...CENTRAL COLORADO...

CITY           SKY/WX    TMP DP  RH WIND       PRES   REMARKS
ASPEN          PTSUNNY   64  40  41 VRB6      30.30S
BUENA VISTA    FAIR      67  32  26 W6        30.26F
COPPER MTN     CLOUDY    54  32  43 NW3       30.54F
BERTHOUD PASS  CLOUDY    45  32  61 NW13G21   30.56F
COTTONWOOD PAS PTSUNNY   63  32  31 CALM      30.39F
GUNNISON       PTSUNNY   63  41  45 SW20G29   30.32R
KREMMLING      FAIR      77  23  13 W14G20    30.22F
LEADVILLE      CLOUDY    55  29  36 CALM      30.39F
MONARCH PASS   CLOUDY    50  30  46 W14G25    30.64R
SALIDA         CLOUDY    69  35  28 E9        30.31F
SUNLIGHT       FAIR      55  37  50 CALM      30.50F
WILKERSON PASS CLOUDY    54  32  43 W3        30.52S
$$

COZ069>075-272200-
...SAN LUIS VALLEY/SANGRE DE CRISTO MOUNTAINS...

CITY           SKY/WX    TMP DP  RH WIND       PRES   REMARKS
ALAMOSA        FAIR      69  41  36 SE20G29   30.24F
LA VETA PASS   FAIR      59  32  36 SW6       30.43S
SAGUACHE       CLOUDY    61  43  51 NW17G24   30.31S
$$

COZ035-036-038>040-272200-
...NORTHERN COLORADO FRONT RANGE...

CITY           SKY/WX    TMP DP  RH WIND       PRES   REMARKS
DENVER INTL AP FAIR      82  33  17 VRB3      30.08F
DMNS CITY PARK   N/A     82  32  16 N3        30.07F
AURORA         MOSUNNY   81  34  18 SW3       30.10F
FRONT RANGE AP MOSUNNY   82  36  18 E10G25    30.10F
ERIE MUNI ARPT FAIR      83  29  14 SE9       30.06F
BOULDER MUN AP FAIR      82  36  18 SE9       30.06F
CENTENNIAL     FAIR      80  31  16 VRB5      30.11F
BROOMFIELD     PTSUNNY   81  32  17 E6        30.11F
FORT COLLINS   FAIR      84  39  20 E6        30.02F
LONGMONT       FAIR      87  34  15 S3        30.06F
$$

COZ041-046-047-076>085-087-088-272200-
...PIKES PEAK/PALMER DIVIDE AND SOUTHERN FOOTHILLS...

CITY           SKY/WX    TMP DP  RH WIND       PRES   REMARKS
COLO. SPRINGS  PTSUNNY   81  34  18 S7        30.14F
A. F. ACADEMY  PTSUNNY   77  34  21 S7        30.14F
SCHRIEVER AFB  NOT AVBL
ELLICOTT       NOT AVBL
FALCON         FAIR      77  32  19 S6        30.19F
FORT CARSON    PTSUNNY   78  39  24 N2        30.10F
LIMON          FAIR      77  52  41 E21G30    30.10F
MONUMENT HILL  PTSUNNY   72  34  25 NE3       30.22F
TRINIDAD       PTSUNNY   81  38  21 VRB7      30.10F
$$

COZ042>045-048>051-090-091-272200-
...NORTHEAST COLORADO...

CITY           SKY/WX    TMP DP  RH WIND       PRES   REMARKS
GREELEY ARPT   FAIR      84  41  21 CALM      30.05F
AKRON          PTSUNNY   80  48  32 CALM      30.05F
BURLINGTON     FAIR      78  53  41 SE10      30.06S
WRAY           NOT AVBL
STERLING       FAIR      86  45  23 SE5       30.01F
HOLYOKE        FAIR      84  55  37 S9        30.02F
FORT MORGAN    FAIR      84  35  17 S7        30.05F
$$

COZ086-089-092>099-272200-
...SOUTHEAST COLORADO...

CITY           SKY/WX    TMP DP  RH WIND       PRES   REMARKS
PUEBLO         FAIR      89  35  14 VRB3      30.02F
LA JUNTA       FAIR      88  43  20 SE7       30.01F
LAMAR          FAIR      90  50  25 S10       29.97F
SPRINGFIELD      N/A     84  54  35 CALM      30.02F
$$




USA.gov is the U.S. government's official web portal to all federal, state and local government web resources and services.